Find Aerocube 16B

NORAD ID: 59291 Int'l Des: 2024-053 Owner: AERO Country: US operational
LEOCIRCULAR

Current View

Loading 3D Globe...

About Aerocube 16B

Description loading...

Upcoming Passes

Passes for default location (London). Set your location on the main map for personalized predictions.

Altitude History

Loading altitude history...

Two-Line Element Set

1 59291U 24053D 26149.78900651 .00018733 00000-0 42282-3 0 9991
2 59291 49.9927 58.4562 0002222 248.0313 112.0415 15.43195967118348
Epoch: May 29, 2026 • Age: 22 hours

Current Status

Altitude 443.9 km
Velocity 7.65 km/s
Sub-Earth Point -27.50°S, 108.07°W
Launch Date Mar 21, 2024
Age 2.1 years
Type other

Technical Details

Classification Payload
Mass 10.00 kg
Dry Mass 10.00 kg
Total Mass 10.00 kg
Length 2.00 m
Diameter 1.00 m
Span 5.00 m
Shape Box + pan
Manufacturer AERO
Bus Type Cubesat 6U
Phase Status In Orbit
Owner/State AERO/US

Most Searched